Location: Beutels
(47.8767°N, 9.8584°E)
Time: 09:56:41
(UTC+00:00)

Meteor 2-13 Rocket - Pass Details

Date: 19 May 2025
Orbit: 934 x 958 km, 82.5° (Epoch: 23 June)

Event Time Altitude Azimuth Distance (km) Brightness Sun altitude
Exits shadow 22:19:04 37° 185° (S) 1,440 4.9 -20.9°
Maximum altitude 22:21:41 87° 98° (E) 963 4.4 -21.0°
Drops below altitude 10° 22:27:51 10° 10° (N) 2,687 7.8 -21.3°
Sets 22:30:21 0° 11° (N) 3,633 8.7 -21.3°
